Regional Weather Roundup
Issued by NWS

Home | Current Version | Previous Version | Text Only | Print | Product List | Glossary Off
Versions: 1 2 3 4 5 6 7 8 9 10 11 12 13 14 15 16 17 18 19 20 21 22 23 24 25 26 27 28 29 30 31 32 33 34 35 36 37 38 39 40 41 42 43 44 45 46 47 48 49 50

000
ASUS43 KMPX 281901
RWRMN
WEATHER ROUNDUP FOR MINNESOTA
NATIONAL WEATHER SERVICE TWIN CITIES/CHANHASSEN MN
100 PM CST FRI NOV 28 2014


NOTE: "FAIR" INDICATES FEW OR NO CLOUDS BELOW 12,000 FEET WITH NO
SIGNIFICANT WEATHER AND/OR OBSTRUCTIONS TO VISIBILITY. N/A MEANS
CURRENT SKY AND/OR WEATHER CONDITIONS ARE NOT AVAILABLE.

MNZ060>063-068>070-282000-
   Twin Cities Metro

CITY           SKY/WX    TMP DP  RH WIND       PRES   REMARKS
TWIN CITIES    PTSUNNY   20  12  71 E13       29.88F WCI   7
CRYSTAL        CLOUDY    21  12  68 E7        29.85F WCI  12
BLAINE         CLOUDY    21  16  79 SE8       29.87F WCI  12
EDEN PRAIRIE   PTSUNNY   20  13  74 E10       29.86F WCI   9
$$
MNZ001>005-007-008-013>017-022>024-027-028-282000-
   Northwest Minnesota

CITY           SKY/WX    TMP DP  RH WIND       PRES   REMARKS
THIEF RVR FALL CLOUDY    12   9  85 E10       29.86F WCI  -1
FOSSTON        CLOUDY    12   7  79 E5        29.86F WCI   4
DETROIT LAKES  CLOUDY    14  10  85 SE8       29.83F WCI   3
PARK RAPIDS    CLOUDY    13   7  77 E7        29.83F WCI   3
MAHNOMEN       CLOUDY    14   7  72 E9        29.84F WCI   2
$$
MNZ006-009>011-018-025>026-282000-
   North Central Minnesota

CITY           SKY/WX    TMP DP  RH WIND       PRES   REMARKS
BAUDETTE       CLOUDY    13   5  70 E7        29.88F WCI   3
BIG FORK       FLURRIES  16   7  67 CALM      29.89F
LONGVILLE      LGT SNOW  12   9  85 SE5       29.87F WCI   4
GRAND RAPIDS   CLOUDY    10   7  85 E6        29.88F WCI   1
ORR            FLURRIES  14   7  73 CALM      29.88F
COOK           FLURRIES  14   9  79 CALM      29.91F
WALKER         FLURRIES  12   7  78 SE3       29.86F
$$
MNZ012-019>021-037-282000-
   Northeast Minnesota

CITY           SKY/WX    TMP DP  RH WIND       PRES   REMARKS
HIBBING        CLOUDY    15   7  70 SE8       29.90F WCI   4
GRAND MARAIS     N/A     22  10  60 VRB6      30.01F WCI  14
$$
MNZ029>031-032-039>041-046>048-054>057-064-282000-
   West Central Minnesota

CITY           SKY/WX    TMP DP  RH WIND       PRES   REMARKS
WHEATON        CLOUDY    16  10  79 SE12      29.84F WCI   3
ALEXANDRIA     CLOUDY    14   9  80 E12       29.82S WCI   0
ELBOW LAKE     FLURRIES  15  10  81 E7        29.82F WCI   5
WADENA         CLOUDY    12   7  79 E9        29.82F WCI   0
$$
MNZ033>034-036-042>043-049>051-058-059-282000-
   Central Minnesota

CITY           SKY/WX    TMP DP  RH WIND       PRES   REMARKS
BRAINERD       CLOUDY    13   7  77 SE6       29.87F WCI   4
LONG PRAIRIE   LGT SNOW  12   9  85 E10       29.83F WCI  -1
LITTLE FALLS   FLURRIES  16   9  73 E7        29.88F WCI   6
MAPLE LAKE     FLURRIES  20  14  77 E8        29.86F WCI  10
$$
MNZ037-044-045-052-053-282000-
   East Central Minnesota

CITY           SKY/WX    TMP DP  RH WIND       PRES   REMARKS
CAMBRIDGE      PTSUNNY   18   9  68 E6        29.88F WCI   9
RUSH CITY      CLOUDY    17  11  75 SE6       29.91F WCI   9
HINCKLEY       LGT SNOW  18  12  79 SE5       29.92F WCI  11
CLOQUET        LGT SNOW  12   9  85 E3        29.91F
$$
MNZ071>073-080-081-089-090-097-098-282000-
   Southwest Minnesota

CITY           SKY/WX    TMP DP  RH WIND       PRES   REMARKS
MARSHALL       PTSUNNY   19  12  73 SE10      29.78F WCI   8
REDWOOD FALLS  PTSUNNY   20  15  81 SE12      29.81F WCI   8
WORTHINGTON    PTSUNNY   27  21  80 SE10      29.75F WCI  17
SLAYTON        PTSUNNY   26  22  85 E6        29.75F WCI  19
$$
MNZ065>067-074>077-082>085-091>093-282000-
   South Central Minnesota

CITY           SKY/WX    TMP DP  RH WIND       PRES   REMARKS
MANKATO        CLOUDY    21  16  79 SE12      29.84F WCI   9
ST JAMES       CLOUDY    21  18  86 SE8       29.84S WCI  12
FAIRMONT       CLOUDY    21  18  86 SE13      29.81F WCI   9
OWATONNA       MIX PCPN  21  16  79 SE14      29.83F WCI   8
$$
MNZ078>079-086>088-094>096-282000-
   Southeast Minnesota

CITY           SKY/WX    TMP DP  RH WIND       PRES   REMARKS
WINONA         PTSUNNY   27  16  63 S3        29.96F
AUSTIN         CLOUDY    19  16  86 SE8       29.86F WCI   9
PRESTON        PTSUNNY   21  16  79 SE9       29.90F WCI  11
$$
ABBREVIATIONS USED IN REMARKS
   TC - TEMPERATURES IN CELSIUS
  WCI - WIND CHILL INDEX
   HX - HEAT INDEX
  VSB - VISIBILITY
$$



USA.gov is the U.S. government's official web portal to all federal, state and local government web resources and services.